Weather History for St. Cloud, MN

Change the Weather History Date:

Thursday, August 15, 2013

  Actual Average Record
Temperature  
Mean Temperature 62 °F 68 °F  
Max Temperature 78 °F 80 °F 105 °F (1936)
Min Temperature 46 °F 56 °F 39 °F (1979)
Degree Days  
Heating Degree Days 3 1  
Month to date heating degree days 23 15  
Since 1 June heating degree days 136 110  
Since 1 July heating degree days 49 32  
Cooling Degree Days 0 4  
Month to date cooling degree days 12 73  
Year to date cooling degree days 339 375  
Since 1 June cooling degree days 328 350  
Growing Degree Days 10 (Base 50)    
Moisture  
Dew Point 52 °F    
Average Humidity 71    
Maximum Humidity 100    
Minimum Humidity 41    
Precipitation  
Precipitation 0.00 in 0.13 in 1.74 in (1954)
Month to date precipitation 0.58 1.74  
Year to date precipitation 20.06 17.53  
Snow  
Snow 0.00 in 0.00 in 0.00 in ()
Month to date snowfall 0.0 0.0  
Since 1 June snowfall 0.0 0.0  
Since 1 July snowfall 0.0 0.0  
Snow Depth 0.00 in    
Sea Level Pressure  
Sea Level Pressure 30.13 in    
Wind  
Wind Speed 2 mph (SSW)    
Max Wind Speed 9 mph    
Max Gust Speed -    
Visibility 10 miles    
Events      
T = Trace of Precipitation, MM = Missing Value Source: NWS Daily Summary

Daily Weather History Graph

Daily Weather History Graph

Search for Another Location

Airport:

Trip Planner

Search our weather history database for the weather conditions in past years. The results will help you decide how hot, cold, wet, or windy it might be!

Date:

Astronomy

Aug. 15, 2013 Rise Set
Actual Time 6:17 AM CDT 8:23 PM CDT
Civil Twilight 5:44 AM CDT 8:55 PM CDT
Nautical Twilight 5:04 AM CDT 9:35 PM CDT
Astronomical Twilight 4:20 AM CDT 10:19 PM CDT
Moon 3:46 PM CDT (8/15) 12:22 AM CDT (8/15)
Length of Visible Light 15h 10m
Length of Day
14h 06m
Waxing Gibbous, 64% of the Moon is Illuminated
Aug 15
Waxing Gibbous
Aug 20
Full
Aug 28
Last Quarter
Sep 5
New
Sep 12
First Quarter

Hourly Weather History & Observations

Time (CDT) Temp. Dew Point Humidity Pressure Visibility Wind Dir Wind Speed Gust Speed Precip Events Conditions
12:53 AM 51.1 °F 48.9 °F 92% 30.14 in 10.0 mi Calm Calm - N/A   Clear
1:53 AM 50.0 °F 48.9 °F 96% 30.13 in 10.0 mi Calm Calm - N/A   Clear
2:53 AM 48.9 °F 48.0 °F 97% 30.13 in 10.0 mi Calm Calm - N/A   Clear
3:53 AM 48.0 °F 46.9 °F 96% 30.13 in 9.0 mi Calm Calm - N/A   Clear
4:53 AM 48.0 °F 46.0 °F 93% 30.12 in 10.0 mi Calm Calm - N/A   Clear
5:53 AM 46.9 °F 46.0 °F 97% 30.13 in 9.0 mi Calm Calm - N/A   Clear
6:53 AM 46.9 °F 46.0 °F 97% 30.14 in 6.0 mi Calm Calm - N/A   Clear
7:53 AM 55.0 °F 52.0 °F 89% 30.15 in 10.0 mi Calm Calm - N/A   Clear
8:53 AM 63.0 °F 55.0 °F 75% 30.15 in 10.0 mi SSW 3.5 mph - N/A   Clear
9:53 AM 66.9 °F 55.0 °F 66% 30.15 in 10.0 mi Calm Calm - N/A   Clear
10:53 AM 70.0 °F 54.0 °F 57% 30.14 in 10.0 mi Calm Calm - N/A   Clear
11:53 AM 73.9 °F 53.1 °F 48% 30.14 in 10.0 mi SSW 6.9 mph - N/A   Partly Cloudy
12:53 PM 75.0 °F 50.0 °F 41% 30.13 in 10.0 mi SSW 3.5 mph - N/A   Clear
1:53 PM 75.0 °F 50.0 °F 41% 30.12 in 10.0 mi Variable 4.6 mph - N/A   Scattered Clouds
2:53 PM 73.9 °F 52.0 °F 46% 30.11 in 10.0 mi Variable 3.5 mph - N/A   Scattered Clouds
3:53 PM 75.0 °F 52.0 °F 44% 30.10 in 10.0 mi Calm Calm - N/A   Scattered Clouds
4:53 PM 75.9 °F 54.0 °F 46% 30.10 in 10.0 mi Variable 4.6 mph - N/A   Overcast
5:53 PM 75.0 °F 54.0 °F 48% 30.11 in 10.0 mi SSE 8.1 mph - N/A   Overcast
6:53 PM 73.9 °F 55.9 °F 53% 30.11 in 10.0 mi WSW 3.5 mph - N/A   Scattered Clouds
7:53 PM 70.0 °F 55.9 °F 61% 30.11 in 10.0 mi SSW 3.5 mph - N/A   Scattered Clouds
8:53 PM 64.9 °F 57.0 °F 75% 30.12 in 10.0 mi Calm Calm - N/A   Mostly Cloudy
9:53 PM 63.0 °F 55.9 °F 78% 30.13 in 10.0 mi Calm Calm - N/A   Clear
10:53 PM 60.1 °F 55.9 °F 86% 30.14 in 10.0 mi Calm Calm - N/A   Clear